Location: Akdamlar
(36.8729°N, 30.5187°E)
Time: 14:57:02
(UTC+00:00)

USA 234 - Pass Details

Date: 18 September 2020
Orbit: 1102 x 1106 km, 123.0° (Epoch: 16 October)

Event Time Altitude Azimuth Distance (km) Brightness Sun altitude
Rises 16:49:15 0° 50° (NE) 3,924 5.8 -10.5°
Reaches altitude 10° 16:51:52 10° 56° (ENE) 2,964 5.1 -11.0°
Maximum altitude 16:58:06 46° 128° (SE) 1,452 3.5 -12.3°
Drops below altitude 10° 17:04:18 10° 200° (SSW) 2,953 5.6 -13.5°
Sets 17:06:54 0° 206° (SSW) 3,909 6.3 -14.0°
